Cordele, GA

11:59 AM EST on December 04, 2016 (GMT -0500)
Crisp County-Cordele

Weather History for KCKF - August, 2014

Change the Weather History Date:

Tuesday, August 19, 2014

  Actual Average (KABY) Record (KABY)
Temperature  
Mean Temperature 82 °F 82 °F  
Max Temperature 90 °F 92 °F 101 °F (1993)
Min Temperature 74 °F 72 °F 63 °F (1979)
Degree Days  
Heating Degree Days 0 0  
Month to date heating degree days 0  
Since 1 June heating degree days 0  
Since 1 July heating degree days 0  
Cooling Degree Days 17 17  
Month to date cooling degree days 323  
Year to date cooling degree days 1769  
Since 1 June cooling degree days 1329  
Growing Degree Days 32 (Base 50)    
Moisture  
Dew Point 73 °F    
Average Humidity 84    
Maximum Humidity 94    
Minimum Humidity 59    
Precipitation  
Precipitation 0.00 in 0.18 in 2.85 in (2013)
Month to date precipitation 3.11  
Year to date precipitation 33.87  
Sea Level Pressure  
Sea Level Pressure 29.96 in    
Wind  
Wind Speed 6 mph (WSW)    
Max Wind Speed 17 mph    
Max Gust Speed 33 mph    
Visibility 10 miles    
Events Rain , Thunderstorm    
T = Trace of Precipitation, MM = Missing Value Source: NWS Daily Summary

Daily Weather History Graph

Daily Weather History Graph

Search for Another Location

Airport or City:

Trip Planner

Search our weather history database for the weather conditions in past years. The results will help you decide how hot, cold, wet, or windy it might be!

Date:

Astronomy

Aug. 19, 2014 Rise Set
Actual Time 7:02 AM EDT 8:14 PM EDT
Civil Twilight 6:36 AM EDT 8:40 PM EDT
Nautical Twilight 6:06 AM EDT 9:10 PM EDT
Astronomical Twilight 5:34 AM EDT 9:41 PM EDT
Moon 1:59 AM EDT (8/19) 4:04 PM EDT (8/19)
Length of Visible Light 14h 03m
Length of Day
13h 12m
Waning Crescent, 29% of the Moon is Illuminated
Aug 19
Waning Crescent
Aug 25
New
Sep 2
First Quarter
Sep 8
Full
Sep 15
Last Quarter

Hourly Weather History & Observations

Time (EDT) Temp. Heat Index Dew Point Humidity Pressure Visibility Wind Dir Wind Speed Gust Speed Precip Events Conditions
12:15 AM 75.6 °F - 68.2 °F 78% 29.96 in 10.0 mi WSW 3.5 mph - N/A   Clear
12:55 AM 74.5 °F - 68.9 °F 83% 29.96 in 10.0 mi WSW 3.5 mph - N/A   Clear
1:15 AM 75.2 °F - 70.7 °F 86% 29.94 in 10.0 mi Calm Calm - N/A   Clear
1:35 AM 75.2 °F - 71.2 °F 87% 29.94 in 10.0 mi SW 4.6 mph - N/A   Clear
1:55 AM 75.2 °F - 71.6 °F 89% 29.95 in 10.0 mi WSW 4.6 mph - N/A   Clear
2:15 AM 75.0 °F - 71.4 °F 89% 29.95 in 10.0 mi SW 3.5 mph - N/A   Clear
2:35 AM 74.8 °F - 71.4 °F 89% 29.95 in 10.0 mi SW 3.5 mph - N/A   Clear
2:55 AM 75.0 °F - 71.6 °F 89% 29.95 in 10.0 mi SW 3.5 mph - N/A   Mostly Cloudy
3:15 AM 74.8 °F - 71.6 °F 90% 29.95 in 10.0 mi Calm Calm - N/A   Mostly Cloudy
3:35 AM 74.8 °F - 71.2 °F 88% 29.94 in 10.0 mi Calm Calm - N/A   Mostly Cloudy
3:55 AM 74.8 °F - 71.4 °F 89% 29.95 in 10.0 mi SW 3.5 mph - N/A   Mostly Cloudy
4:15 AM 75.2 °F - 71.1 °F 87% 29.95 in 10.0 mi SW 3.5 mph - N/A   Overcast
4:35 AM 75.2 °F - 70.7 °F 86% 29.95 in 10.0 mi SW 3.5 mph - N/A   Overcast
4:55 AM 75.2 °F - 71.1 °F 87% 29.95 in 10.0 mi WSW 4.6 mph - N/A   Overcast
5:15 AM 75.4 °F - 71.8 °F 89% 29.95 in 10.0 mi SW 4.6 mph - N/A   Overcast
5:35 AM 75.7 °F - 73.0 °F 91% 29.95 in 10.0 mi WSW 6.9 mph - N/A   Overcast
5:55 AM 75.6 °F - 73.4 °F 93% 29.95 in 10.0 mi WSW 5.8 mph - N/A   Mostly Cloudy
6:15 AM 76.1 °F - 73.8 °F 92% 29.95 in 10.0 mi WSW 8.1 mph - N/A   Mostly Cloudy
6:35 AM 76.6 °F - 74.3 °F 92% 29.96 in 10.0 mi WSW 8.1 mph - N/A   Overcast
6:55 AM 77.2 °F - 74.5 °F 91% 29.96 in 7.0 mi WSW 9.2 mph - N/A   Overcast
7:15 AM 77.4 °F - 74.8 °F 92% 29.96 in 7.0 mi WSW 8.1 mph - N/A   Overcast
7:35 AM 77.9 °F - 75.2 °F 91% 29.97 in 10.0 mi WSW 9.2 mph - N/A   Overcast
7:55 AM 78.3 °F - 75.2 °F 90% 29.97 in 10.0 mi West 6.9 mph - N/A   Overcast
8:15 AM 79.2 °F - 75.6 °F 89% 29.98 in 10.0 mi WSW 10.4 mph - N/A   Overcast
8:35 AM 79.7 °F - 75.6 °F 87% 29.99 in 10.0 mi WSW 6.9 mph - N/A   Overcast
8:55 AM 81.3 °F 87.8 °F 75.7 °F 83% 29.99 in 10.0 mi West 10.4 mph - N/A Thunderstorm Overcast
9:15 AM 82.9 °F 90.8 °F 75.7 °F 79% 29.99 in 10.0 mi West 11.5 mph - N/A   Mostly Cloudy
9:35 AM 80.6 °F 86.6 °F 76.1 °F 86% 30.00 in 7.0 mi WNW 8.1 mph 18.4 mph N/A   Overcast
9:55 AM 80.6 °F 86.8 °F 76.3 °F 87% 29.99 in 10.0 mi West 8.1 mph - N/A Thunderstorm Overcast
10:15 AM 81.0 °F 87.3 °F 75.9 °F 85% 30.00 in 10.0 mi West 5.8 mph - N/A   Scattered Clouds
10:35 AM 82.6 °F 89.9 °F 75.4 °F 79% 30.00 in 10.0 mi West 10.4 mph - N/A   Mostly Cloudy
10:55 AM 86.7 °F 96.4 °F 75.6 °F 69% 30.00 in 10.0 mi WNW 9.2 mph - N/A Thunderstorm Mostly Cloudy
11:15 AM 87.3 °F 96.3 °F 74.7 °F 66% 30.00 in 10.0 mi West 13.8 mph 19.6 mph N/A   Mostly Cloudy
11:35 AM 88.3 °F 97.4 °F 74.5 °F 63% 29.99 in 10.0 mi West 15.0 mph 20.7 mph N/A   Mostly Cloudy
11:55 AM 88.7 °F 97.7 °F 74.3 °F 62% 29.98 in 10.0 mi WNW 13.8 mph 20.7 mph N/A   Mostly Cloudy
12:15 PM 90.0 °F 99.0 °F 73.9 °F 59% 29.98 in 10.0 mi West 12.7 mph - N/A Thunderstorm Mostly Cloudy
12:35 PM 87.8 °F 96.1 °F 73.9 °F 63% 29.97 in 10.0 mi West 12.7 mph - N/A   Mostly Cloudy
12:55 PM 81.1 °F 84.5 °F 69.6 °F 68% 29.98 in 5.0 mi West 16.1 mph 33.4 mph N/A Rain , Thunderstorm Heavy Thunderstorms and Rain
1:15 PM 77.2 °F - 71.1 °F 81% 29.96 in 10.0 mi Calm Calm - N/A Rain , Thunderstorm Light Thunderstorms and Rain
1:35 PM 79.2 °F - 73.6 °F 83% 29.96 in 10.0 mi South 5.8 mph - N/A Thunderstorm Scattered Clouds
1:55 PM 80.6 °F 85.9 °F 74.5 °F 82% 29.96 in 10.0 mi SSW 8.1 mph - N/A   Scattered Clouds
2:15 PM 79.5 °F - 73.8 °F 82% 29.95 in 7.0 mi WSW 11.5 mph 17.3 mph N/A Rain , Thunderstorm Light Thunderstorms and Rain
2:35 PM 81.0 °F 85.6 °F 72.7 °F 76% 29.95 in 10.0 mi West 3.5 mph - N/A   Mostly Cloudy
2:55 PM 82.9 °F 88.3 °F 72.1 °F 70% 29.93 in 10.0 mi SW 3.5 mph - N/A Thunderstorm Scattered Clouds
3:15 PM 81.9 °F 88.7 °F 75.6 °F 81% 29.93 in 10.0 mi SW 9.2 mph - N/A Rain Light Rain
3:35 PM 81.9 °F 87.0 °F 72.7 °F 74% 29.94 in 10.0 mi SW 10.4 mph 17.3 mph N/A Thunderstorm Mostly Cloudy
3:55 PM 80.1 °F 84.1 °F 72.7 °F 78% 29.94 in 10.0 mi WSW 17.3 mph 25.3 mph N/A   Scattered Clouds
4:15 PM 79.0 °F - 72.5 °F 80% 29.93 in 10.0 mi WSW 12.7 mph 18.4 mph N/A   Scattered Clouds
4:35 PM 77.0 °F - 72.9 °F 87% 29.91 in 7.0 mi West 5.8 mph - N/A Rain , Thunderstorm Light Thunderstorms and Rain
4:55 PM 77.5 °F - 71.8 °F 82% 29.94 in 10.0 mi WSW 11.5 mph - N/A   Clear
5:15 PM 77.0 °F - 72.5 °F 86% 29.96 in 10.0 mi SW 12.7 mph 16.1 mph N/A   Clear
5:35 PM 77.0 °F - 72.9 °F 87% 29.97 in 10.0 mi SW 8.1 mph 16.1 mph N/A Rain Light Rain
5:55 PM 76.1 °F - 72.7 °F 89% 29.96 in 10.0 mi WSW 5.8 mph - N/A Rain Light Rain
6:35 PM 76.6 °F - 73.0 °F 89% 29.93 in 10.0 mi WSW 5.8 mph - N/A   Clear
6:55 PM 76.6 °F - 72.9 °F 88% 29.93 in 10.0 mi SW 4.6 mph - N/A   Clear
7:15 PM 76.5 °F - 72.7 °F 88% 29.94 in 10.0 mi SW 5.8 mph - N/A   Clear
7:35 PM 76.5 °F - 72.7 °F 88% 29.93 in 10.0 mi SW 8.1 mph - N/A   Clear
7:55 PM 76.5 °F - 72.9 °F 89% 29.93 in 10.0 mi WSW 5.8 mph - N/A   Clear
8:15 PM 76.3 °F - 73.4 °F 91% 29.94 in 10.0 mi WSW 5.8 mph - N/A   Clear
8:35 PM 76.5 °F - 73.4 °F 90% 29.96 in 10.0 mi SW 5.8 mph - N/A   Clear
8:55 PM 76.5 °F - 73.4 °F 90% 29.96 in 10.0 mi SW 4.6 mph - N/A   Clear
9:15 PM 77.0 °F - 73.6 °F 89% 29.96 in 10.0 mi SW 8.1 mph - N/A   Clear
9:35 PM 76.8 °F - 73.4 °F 89% 29.95 in 10.0 mi WSW 5.8 mph - N/A   Clear
9:55 PM 76.6 °F - 73.4 °F 90% 29.95 in 10.0 mi WSW 5.8 mph - N/A   Clear
10:55 PM 75.6 °F - 73.4 °F 93% 29.98 in 10.0 mi WSW 3.5 mph - N/A   Clear
11:15 PM 75.2 °F - 73.4 °F 94% 30.00 in 7.0 mi WSW 4.6 mph - N/A   Clear
11:35 PM 75.2 °F - 73.4 °F 94% 30.01 in 7.0 mi West 3.5 mph - N/A   Clear
11:55 PM 75.0 °F - 72.7 °F 92% 30.01 in 10.0 mi West 3.5 mph - N/A   Clear